Location: Doughton Park
(36.4224°N, 81.1835°W)
Time: 07:27:51
(UTC-05:00)

Amateur Radio Satellites - All Passes

Search period start: 07 December 2016 06:57
Search period end: 08 December 2016 06:57
Location: Doughton Park, 36.4224°N, 81.1835°W

Satellite Date Start Highest point End Downlink Frequencies (MHz)
Time Altitude Azimuth
AIST 1 07 Dec 07:03:46 07:08:10 69° 81° (E) 07:12:33
CUTE-I 07 Dec 07:04:29 07:09:47 69° 286° (WNW) 07:15:02 437.470
BRITE-PL 07 Dec 07:06:17 07:09:33 16° 295° (WNW) 07:12:53 437.365/2234.400
HORYU 2 07 Dec 07:10:04 07:12:15 14° 295° (WNW) 07:14:27 437.375
YUBILEINY 07 Dec 07:20:10 07:28:39 54° 270° (W) 07:37:09 435.215
RS-15 07 Dec 07:21:19 07:32:52 74° 115° (ESE) 07:45:03 29.354- 29.394
LilacSat-2 07 Dec 07:22:57 07:26:01 23° 289° (WNW) 07:29:02 437.200
NOAA 18 07 Dec 07:23:25 07:28:57 77° 287° (WNW) 07:34:26 137.9125
NOAA 15 07 Dec 07:23:45 07:28:39 40° 290° (WNW) 07:33:33 137.62
Cubesat XI-IV 07 Dec 07:31:08 07:36:04 39° 290° (WNW) 07:40:57 437.490
CUTE 1.7 + AOD 2 07 Dec 07:36:54 07:40:41 31° 97° (E) 07:44:26 437.475
HO-68 07 Dec 07:41:10 07:47:59 44° 100° (E) 07:54:45 435.675
Cosmos 2504 07 Dec 07:43:04 07:51:49 76° 267° (W) 07:59:59 435.465 / 435.565
Cosmos 2491 07 Dec 07:44:28 07:53:10 65° 280° (W) 08:01:53 435.465 / 435.565
CINEMA 3 07 Dec 07:49:36 07:54:23 81° 100° (E) 07:58:56 145.822/145.860
CANX-2 07 Dec 07:54:51 07:59:03 63° 101° (E) 08:03:13 2200.000
AAUSAT CUBESAT 2 07 Dec 07:55:30 07:58:11 17° 94° (E) 08:00:53 437.432
CUBEBUG 2 07 Dec 08:00:13 08:03:37 22° 94° (E) 08:06:56 437.445
PRISM 07 Dec 08:04:07 08:07:19 23° 69° (ENE) 08:10:32 437.425
STRAND 1 07 Dec 08:14:02 08:17:27 18° 266° (W) 08:20:54 437.568
SEEDS 07 Dec 08:17:43 08:21:53 66° 100° (E) 08:26:03 437.485
DOVE 4 07 Dec 08:18:48 08:21:46 15° 296° (WNW) 08:24:44 437.250
Oscar 11 07 Dec 08:19:50 08:21:23 12° 92° (E) 08:22:55 145.826/435.025
COMPASS 1 07 Dec 08:25:50 08:29:55 52° 100° (E) 08:33:59 437.405
AIST 2 07 Dec 08:33:14 08:37:02 37° 304° (NW) 08:40:56 435.215
UWE-3 07 Dec 08:39:34 08:43:35 39° 98° (E) 08:47:30 435.000/436.395/437.385
UNISAT 6 07 Dec 08:58:58 09:02:36 23° 69° (ENE) 09:06:13 437.425
CUSAT 1 07 Dec 09:08:47 09:11:47 32° 97° (E) 09:14:20 437.405
CUTE 1.7 + AOD 2 07 Dec 09:13:20 09:16:16 19° 291° (WNW) 09:19:12 437.475
ZACube-1 07 Dec 09:17:38 09:21:51 68° 102° (ESE) 09:25:57 437.345
FUNcube-1 07 Dec 09:24:35 09:28:47 76° 100° (E) 09:32:54 145.935
TIGRISAT 07 Dec 09:27:37 09:32:03 43° 73° (ENE) 09:36:27 435.000
HO-68 07 Dec 09:29:12 09:35:28 33° 296° (WNW) 09:41:42 435.675
ANTELSAT 07 Dec 09:29:22 09:33:51 47° 73° (ENE) 09:38:19 437.575/2403.000
AAUSAT CUBESAT 2 07 Dec 09:29:59 09:33:43 33° 288° (WNW) 09:37:25 437.432
RS-15 07 Dec 09:35:57 09:46:30 35° 319° (NW) 09:57:29 29.354- 29.394
CUBEBUG 2 07 Dec 09:36:33 09:40:11 26° 290° (WNW) 09:43:43 437.445
PRISM 07 Dec 09:39:13 09:42:29 23° 264° (W) 09:45:47 437.425
Cosmos 2504 07 Dec 09:40:49 09:43:29 12° 285° (WNW) 09:46:06 435.465 / 435.565
Cosmos 2491 07 Dec 09:50:51 09:51:50 10° 300° (WNW) 09:52:50 435.465 / 435.565
Oscar 11 07 Dec 09:53:36 09:57:46 50° 286° (WNW) 10:01:55 145.826/435.025
COMPASS 1 07 Dec 10:03:37 10:04:58 11° 294° (WNW) 10:06:20 437.405
POPSAT HIP 1 07 Dec 10:04:24 10:05:23 11° 64° (ENE) 10:06:22 437.405
DANDE 07 Dec 10:05:43 10:10:25 50° 98° (E) 10:13:59 436.750
GONETS M04 07 Dec 10:05:51 10:07:29 11° 60° (ENE) 10:09:08
AO-85 07 Dec 10:09:12 10:12:03 19° 50° (NE) 10:14:50 145.980
DELFI C3 07 Dec 10:16:48 10:20:47 75° 283° (WNW) 10:24:46 145.870
UWE-3 07 Dec 10:17:14 10:19:39 15° 294° (WNW) 10:22:04 435.000/436.395/437.385
JUGNU 07 Dec 10:19:38 10:20:41 10° 167° (SSE) 10:21:46 437.505
HUMSAT D 07 Dec 10:33:52 10:37:58 83° 102° (ESE) 10:42:02 437.325/437.525
UNISAT 6 07 Dec 10:34:55 10:39:05 32° 263° (W) 10:43:16 437.425
JAS-2 07 Dec 10:37:00 10:43:18 52° 73° (ENE) 10:48:55 435.910
Cosmos 2499 07 Dec 10:39:51 10:46:09 22° 67° (ENE) 10:52:07 435.465 / 435.565
NANOSAT C BR1 07 Dec 10:54:42 10:58:39 39° 73° (ENE) 11:02:39 145.865
CUBEBUG 1 07 Dec 10:59:11 11:00:08 11° 91° (E) 11:01:06 437.445
QB50P2 07 Dec 11:01:40 11:05:50 56° 75° (ENE) 11:10:03 145.880/145.840
POLYITAN 1 07 Dec 11:02:10 11:06:21 53° 74° (ENE) 11:10:32 437.675
TIGRISAT 07 Dec 11:05:53 11:08:52 17° 267° (W) 11:11:50 435.000
ANTELSAT 07 Dec 11:08:05 11:10:44 15° 267° (W) 11:13:24 437.575/2403.000
PCSat 07 Dec 11:10:02 11:15:22 66° 114° (ESE) 11:20:45 145.827
QB50P1 07 Dec 11:14:39 11:18:55 75° 75° (ENE) 11:23:11 145.935-145.965
DUCHIFAT 1 07 Dec 11:15:54 11:20:06 65° 75° (ENE) 11:24:20 145.980
SPROUT 07 Dec 11:35:50 11:37:19 12° 92° (E) 11:38:49 437.525
POPSAT HIP 1 07 Dec 11:36:22 11:40:36 61° 259° (W) 11:44:51 437.405
AO-85 07 Dec 11:49:02 11:52:30 31° 247° (WSW) 11:55:55 145.980
GONETS M04 07 Dec 11:57:23 12:06:05 67° 81° (E) 12:14:45
RS-15 07 Dec 11:57:38 12:04:31 16° 352° (N) 12:11:28 29.354- 29.394
JUGNU 07 Dec 12:05:33 12:08:54 15° 177° (S) 12:12:14 437.505
BUGSAT 1 07 Dec 12:07:02 12:11:15 86° 254° (WSW) 12:15:32 437.445
ESTCUBE 1 07 Dec 12:09:29 12:13:58 65° 285° (WNW) 12:18:26 437.505/2401.250
AISAT 07 Dec 12:10:04 12:14:27 51° 100° (E) 12:18:47 437.250
JAS-2 07 Dec 12:23:44 12:28:29 21° 264° (W) 12:32:53 435.910
Cosmos 2499 07 Dec 12:31:38 12:40:04 69° 268° (W) 12:47:50 435.465 / 435.565
NANOSAT C BR1 07 Dec 12:32:03 12:34:31 15° 267° (W) 12:36:59 145.865
CUBEBUG 1 07 Dec 12:32:22 12:36:45 59° 285° (WNW) 12:41:05 437.445
50 SAT 07 Dec 12:39:53 12:43:27 77° 283° (WNW) 12:47:00 437.505
POLYITAN 1 07 Dec 12:41:07 12:42:24 11° 268° (W) 12:43:41 437.675
QB50P2 07 Dec 12:41:07 12:41:56 10° 269° (W) 12:42:45 145.880/145.840
VELOX 1 07 Dec 12:46:51 12:51:17 63° 285° (WNW) 12:55:41 145.980
Oscar 19 07 Dec 12:47:47 12:52:46 57° 73° (ENE) 12:57:48 437.125/150
TISAT 1 07 Dec 12:52:10 12:54:08 13° 93° (E) 12:56:06 437.305
DX 1 07 Dec 12:55:17 12:59:43 83° 104° (ESE) 13:04:05 434.975-435.025
PCSat 07 Dec 12:55:41 12:59:15 18° 311° (NW) 13:02:50 145.827
Gurwin Techsat 1B 07 Dec 12:55:48 13:00:33 34° 69° (ENE) 13:05:19 435.225
UKube-1 07 Dec 12:59:35 13:03:55 67° 102° (ESE) 13:08:12 .
SPROUT 07 Dec 13:09:21 13:13:30 50° 286° (WNW) 13:17:38 437.525
ITAMSAT 1 07 Dec 13:22:22 13:24:48 13° 62° (ENE) 13:27:13 435.822/435.867
BEESAT 3 07 Dec 13:42:57 13:46:49 46° 57° (ENE) 13:50:38 437.485
AO-7 07 Dec 13:45:32 13:52:04 27° 58° (ENE) 13:58:38 29.400- 29.500
SRMSAT 07 Dec 13:47:39 13:50:29 14° 173° (S) 13:53:20 437.500
AISAT 07 Dec 13:48:12 13:50:26 14° 295° (WNW) 13:52:39 437.250
JUGNU 07 Dec 13:54:10 13:57:08 14° 187° (S) 14:00:04 437.505
M-CUBED/EXP-1 PRIME 07 Dec 13:54:14 13:55:44 11° 95° (E) 13:57:13 437.505
GONETS M04 07 Dec 13:55:44 14:02:03 23° 278° (W) 14:08:22
ITUPSAT 1 07 Dec 13:59:26 14:01:59 14° 93° (E) 14:04:33 437.325
RS-15 07 Dec 14:14:25 14:23:49 24° 29° (NNE) 14:33:04 29.354- 29.394
BEESAT 2 07 Dec 14:15:17 14:19:12 46° 57° (ENE) 14:23:04 435.950
TISAT 1 07 Dec 14:25:57 14:29:58 43° 287° (WNW) 14:33:56 437.305
Oscar 19 07 Dec 14:29:40 14:32:25 14° 268° (W) 14:35:11 437.125/150
Gurwin Techsat 1B 07 Dec 14:36:05 14:40:29 26° 264° (W) 14:44:54 435.225
UKube-1 07 Dec 14:39:09 14:39:20 10° 297° (WNW) 14:39:30 .
O/OREOS (USA 219) 07 Dec 14:57:58 15:01:15 20° 101° (E) 15:04:31 437.305
ITAMSAT 1 07 Dec 14:58:25 15:03:37 71° 258° (WSW) 15:08:51 435.822/435.867
SWISSCUBE 07 Dec 15:02:43 15:07:30 84° 105° (ESE) 15:12:14 437.505
BEESAT 07 Dec 15:06:36 15:11:22 82° 103° (ESE) 15:16:07 436.000
AUBIESAT-1 07 Dec 15:12:21 15:16:55 75° 106° (ESE) 15:21:14 437.475
BEESAT 3 07 Dec 15:22:18 15:24:00 12° 252° (WSW) 15:25:41 437.485
M-CUBED/EXP-1 PRIME 07 Dec 15:25:58 15:30:35 62° 290° (WNW) 15:34:57 437.505
ITUPSAT 1 07 Dec 15:35:28 15:40:04 50° 287° (WNW) 15:44:39 437.325
SRMSAT 07 Dec 15:35:34 15:38:51 15° 183° (S) 15:42:07 437.500
AO-7 07 Dec 15:35:58 15:44:10 66° 256° (WSW) 15:52:28 29.400- 29.500
ISS 07 Dec 15:51:02 15:54:19 74° 320° (NW) 15:57:36 145.825
BEESAT 2 07 Dec 15:54:48 15:56:32 13° 252° (WSW) 15:58:18 435.950
MOZHAYETS 4 07 Dec 15:58:43 16:03:16 71° 102° (ESE) 16:07:49
CUBESAT XI-V 07 Dec 16:08:23 16:09:42 11° 91° (E) 16:11:01 437.345
KKS-1 07 Dec 16:17:28 16:21:45 43° 99° (E) 16:26:00 437.445
STARS 07 Dec 16:19:44 16:23:01 20° 95° (E) 16:26:15 437.465
RS-15 07 Dec 16:26:46 16:39:10 70° 57° (ENE) 16:51:03 29.354- 29.394
HORYU 2 07 Dec 16:27:18 16:31:21 34° 71° (ENE) 16:35:24 437.375
BRITE-PL 07 Dec 16:35:06 16:39:14 50° 74° (ENE) 16:43:40 437.365/2234.400
O/OREOS (USA 219) 07 Dec 16:36:14 16:40:22 33° 296° (WNW) 16:44:31 437.305
CUTE-I 07 Dec 16:45:55 16:49:27 18° 64° (ENE) 16:52:59 437.470
AUBIESAT-1 07 Dec 16:49:22 16:50:36 11° 302° (WNW) 16:51:50 437.475
AIST 2 07 Dec 16:56:23 17:00:36 62° 59° (ENE) 17:04:46 435.215
NOAA 15 07 Dec 17:02:20 17:06:43 28° 68° (ENE) 17:11:07 137.62
NOAA 18 07 Dec 17:08:36 17:12:29 20° 64° (ENE) 17:16:23 137.9125
Cubesat XI-IV 07 Dec 17:11:06 17:15:44 31° 68° (ENE) 17:20:23 437.490
SRMSAT 07 Dec 17:26:07 17:27:12 10° 193° (SSW) 17:28:16 437.500
ISS 07 Dec 17:29:48 17:31:18 12° 337° (NNW) 17:32:48 145.825
MOZHAYETS 4 07 Dec 17:39:15 17:39:47 10° 297° (WNW) 17:40:20
GOMX 1 07 Dec 17:40:02 17:44:33 78° 257° (WSW) 17:49:28 467.674
DOVE 4 07 Dec 17:41:56 17:46:27 44° 72° (ENE) 17:51:16 437.250
CUBESAT XI-V 07 Dec 17:42:49 17:47:25 62° 285° (WNW) 17:52:02 437.345
KKS-1 07 Dec 17:55:14 17:57:55 16° 294° (WNW) 18:00:36 437.445
STARS 07 Dec 17:55:28 17:59:22 31° 289° (WNW) 18:03:14 437.465
Cosmos 2491 07 Dec 17:57:59 18:06:32 57° 79° (E) 18:15:03 435.465 / 435.565
LilacSat-2 07 Dec 18:01:16 18:05:07 73° 258° (WSW) 18:08:58 437.200
HORYU 2 07 Dec 18:04:44 18:07:56 19° 265° (W) 18:11:08 437.375
HO-68 07 Dec 18:08:02 18:13:39 26° 62° (ENE) 18:19:17 435.675
BRITE-PL 07 Dec 18:16:35 18:18:09 12° 270° (W) 18:19:45 437.365/2234.400
YUBILEINY 07 Dec 18:21:50 18:29:32 37° 86° (E) 18:37:17 435.215
CUTE-I 07 Dec 18:23:48 18:29:02 54° 260° (W) 18:34:17 437.470
Cosmos 2504 07 Dec 18:27:44 18:32:45 17° 78° (ENE) 18:37:54 435.465 / 435.565
CUTE 1.7 + AOD 2 07 Dec 18:27:59 18:30:41 17° 68° (ENE) 18:33:24 437.475
AIST 2 07 Dec 18:37:54 18:38:30 10° 253° (WSW) 18:39:06 435.215
SO-50 07 Dec 18:38:15 18:41:07 16° 109° (ESE) 18:43:58 436.795
RS-15 07 Dec 18:40:33 18:50:37 32° 257° (WSW) 19:00:24 29.354- 29.394
NOAA 15 07 Dec 18:41:44 18:46:21 32° 263° (W) 18:51:01 137.62
CANX-2 07 Dec 18:45:12 18:48:56 31° 72° (ENE) 18:52:38 2200.000
STRAND 1 07 Dec 18:47:07 18:50:44 19° 94° (E) 18:54:19 437.568
NOAA 18 07 Dec 18:47:20 18:52:42 52° 259° (W) 18:58:07 137.9125
CINEMA 3 07 Dec 18:47:40 18:52:27 54° 74° (ENE) 18:57:22 145.822/145.860
Cubesat XI-IV 07 Dec 18:51:02 18:55:42 30° 263° (W) 19:00:24 437.490
CUBEBUG 2 07 Dec 18:56:04 18:59:02 17° 67° (ENE) 19:02:00 437.445
SEEDS 07 Dec 19:06:59 19:10:40 31° 72° (ENE) 19:14:21 437.485
COMPASS 1 07 Dec 19:14:23 19:17:45 25° 71° (ENE) 19:21:07 437.405
DOVE 4 07 Dec 19:21:11 19:24:23 17° 269° (W) 19:27:41 437.250
AIST 1 07 Dec 19:30:14 19:34:20 45° 93° (E) 19:38:28
UWE-3 07 Dec 19:33:48 19:37:39 26° 70° (ENE) 19:41:29 435.000/436.395/437.385
CUSAT 1 07 Dec 19:40:57 19:44:06 21° 79° (E) 19:47:55 437.405
HO-68 07 Dec 19:53:51 20:00:51 58° 258° (WSW) 20:07:56 435.675
Cosmos 2491 07 Dec 19:55:51 20:02:45 27° 277° (W) 20:09:40 435.465 / 435.565
PCSat 07 Dec 20:00:43 20:05:32 31° 55° (NE) 20:10:19 145.827
CUTE 1.7 + AOD 2 07 Dec 20:02:23 20:06:14 34° 263° (W) 20:10:05 437.475
ZACube-1 07 Dec 20:10:25 20:14:38 39° 73° (ENE) 20:18:50 437.345
SO-50 07 Dec 20:16:31 20:21:10 52° 303° (WNW) 20:25:47 436.795
Cosmos 2504 07 Dec 20:16:31 20:24:51 84° 277° (W) 20:33:43 435.465 / 435.565
AAUSAT CUBESAT 2 07 Dec 20:16:50 20:20:56 73° 260° (W) 20:25:02 437.432
FUNcube-1 07 Dec 20:17:00 20:21:17 42° 73° (ENE) 20:25:31 145.935
YUBILEINY 07 Dec 20:17:58 20:26:06 43° 284° (WNW) 20:34:20 435.215
CANX-2 07 Dec 20:21:52 20:24:48 18° 266° (W) 20:27:43 2200.000
STRAND 1 07 Dec 20:25:15 20:30:03 43° 289° (WNW) 20:34:49 437.568
CINEMA 3 07 Dec 20:27:09 20:29:52 15° 269° (W) 20:32:38 145.822/145.860
CUBEBUG 2 07 Dec 20:30:40 20:35:14 46° 261° (W) 20:39:48 437.445
SEEDS 07 Dec 20:43:35 20:46:23 18° 266° (W) 20:49:13 437.485
DANDE 07 Dec 20:45:04 20:47:20 18° 80° (E) 20:49:57 436.750
Oscar 11 07 Dec 20:45:14 20:49:33 87° 75° (ENE) 20:53:53 145.826/435.025
COMPASS 1 07 Dec 20:50:00 20:53:13 22° 265° (W) 20:56:26 437.405
DELFI C3 07 Dec 20:59:48 21:03:28 40° 74° (ENE) 21:07:09 145.870
UWE-3 07 Dec 21:10:02 21:13:59 27° 264° (W) 21:17:54 435.000/436.395/437.385
AIST 1 07 Dec 21:10:14 21:12:11 13° 288° (WNW) 21:14:08
PRISM 07 Dec 21:22:01 21:26:06 52° 100° (E) 21:30:09 437.425
HUMSAT D 07 Dec 21:22:19 21:26:15 39° 73° (ENE) 21:30:09 437.325/437.525
CUSAT 1 07 Dec 21:22:21 21:25:51 27° 264° (W) 21:30:13 437.405
ANTELSAT 07 Dec 21:26:18 21:27:25 11° 91° (E) 21:28:32 437.575/2403.000
PCSat 07 Dec 21:44:05 21:48:52 33° 251° (WSW) 21:53:37 145.827
ZACube-1 07 Dec 21:48:03 21:51:01 17° 267° (W) 21:53:57 437.345
FUNcube-1 07 Dec 21:54:57 21:57:39 15° 267° (W) 22:00:19 145.935
Cosmos 2504 07 Dec 22:14:57 22:19:37 16° 297° (WNW) 22:24:27 435.465 / 435.565
ISS 07 Dec 22:21:06 22:24:16 41° 36° (NE) 22:27:25 145.825
DANDE 07 Dec 22:28:09 22:29:53 14° 264° (W) 22:31:48 436.750
UNISAT 6 07 Dec 22:28:44 22:33:05 65° 101° (E) 22:37:20 437.425
DELFI C3 07 Dec 22:36:52 22:38:26 12° 268° (W) 22:39:59 145.870
QB50P2 07 Dec 22:51:44 22:52:44 11° 91° (E) 22:53:42 145.880/145.840
TIGRISAT 07 Dec 22:58:11 23:02:29 60° 285° (WNW) 23:06:41 435.000
PRISM 07 Dec 22:59:26 23:00:54 12° 295° (WNW) 23:02:22 437.425
HUMSAT D 07 Dec 22:59:41 23:01:59 14° 267° (W) 23:04:17 437.325/437.525
ANTELSAT 07 Dec 23:00:12 23:04:27 53° 286° (WNW) 23:08:37 437.575/2403.000
QB50P1 07 Dec 23:03:23 23:05:42 14° 93° (E) 23:08:00 145.935-145.965
GONETS M04 07 Dec 23:04:28 23:08:06 13° 77° (ENE) 23:11:43
DUCHIFAT 1 07 Dec 23:04:31 23:06:11 12° 92° (E) 23:07:51 145.980
AISAT 07 Dec 23:04:55 23:08:51 33° 71° (ENE) 23:12:50 437.250
ESTCUBE 1 07 Dec 23:06:05 23:10:33 83° 75° (ENE) 23:15:02 437.505/2401.250
50 SAT 07 Dec 23:12:58 23:15:53 25° 72° (ENE) 23:18:51 437.505
Cosmos 2499 07 Dec 23:13:50 23:19:23 19° 79° (E) 23:25:04 435.465 / 435.565
POPSAT HIP 1 07 Dec 23:24:07 23:27:36 25° 96° (E) 23:31:04 437.405
CUBEBUG 1 07 Dec 23:25:17 23:29:38 81° 75° (ENE) 23:34:02 437.445
PHONESAT 2.4 07 Dec 23:26:21 23:28:54 42° 154° (SSE) 23:31:27 2401.200-2431.200
JAS-2 07 Dec 23:33:08 23:38:15 52° 101° (E) 23:43:41 435.910
VELOX 1 07 Dec 23:41:08 23:45:32 82° 76° (ENE) 23:49:59 145.980
DX 1 07 Dec 23:48:04 23:52:15 50° 73° (ENE) 23:56:28 434.975-435.025
UKube-1 07 Dec 23:51:28 23:55:28 39° 72° (ENE) 23:59:30 .
BUGSAT 1 07 Dec 23:52:36 23:55:14 16° 93° (E) 23:57:51 437.445
ISS 07 Dec 23:58:21 00:00:31 16° 231° (SW) 00:02:40 145.825
SPROUT 07 Dec 23:59:37 00:03:55 85° 74° (ENE) 00:08:14 437.525
UNISAT 6 08 Dec 00:08:48 00:09:10 10° 297° (WNW) 00:09:33 437.425
NANOSAT C BR1 08 Dec 00:16:45 00:20:58 78° 284° (WNW) 00:25:09 145.865
AO-85 08 Dec 00:21:59 00:24:26 14° 109° (ESE) 00:26:50 145.980
QB50P2 08 Dec 00:24:40 00:28:48 52° 286° (WNW) 00:32:54 145.880/145.840
POLYITAN 1 08 Dec 00:25:08 00:29:17 56° 286° (WNW) 00:33:23 437.675
QB50P1 08 Dec 00:37:40 00:41:37 39° 287° (WNW) 00:45:33 145.935-145.965
DUCHIFAT 1 08 Dec 00:38:03 00:42:05 46° 287° (WNW) 00:46:05 145.980
AISAT 08 Dec 00:42:09 00:45:20 19° 265° (W) 00:48:33 437.250
50 SAT 08 Dec 00:47:11 00:49:11 14° 266° (W) 00:51:12 437.505
GONETS M04 08 Dec 00:54:44 01:03:27 83° 95° (E) 01:12:11
POPSAT HIP 1 08 Dec 00:59:53 01:03:15 23° 291° (WNW) 01:06:35 437.405
PHONESAT 2.4 08 Dec 01:01:35 01:04:08 40° 350° (N) 01:06:40 2401.200-2431.200
Oscar 19 08 Dec 01:02:24 01:06:37 25° 95° (E) 01:10:49 437.125/150
Cosmos 2499 08 Dec 01:02:49 01:11:21 80° 277° (W) 01:20:18 435.465 / 435.565
ITUPSAT 1 08 Dec 01:04:23 01:06:45 14° 64° (ENE) 01:09:08 437.325
O/OREOS (USA 219) 08 Dec 01:09:36 01:13:19 25° 62° (ENE) 01:17:00 437.305
TISAT 1 08 Dec 01:14:17 01:18:31 86° 256° (WSW) 01:22:47 437.305
Gurwin Techsat 1B 08 Dec 01:15:32 01:18:47 16° 93° (E) 01:22:00 435.225
JAS-2 08 Dec 01:19:45 01:22:59 17° 295° (WNW) 01:26:18 435.910
BUGSAT 1 08 Dec 01:26:55 01:30:42 34° 288° (WNW) 01:34:24 437.445
DX 1 08 Dec 01:26:56 01:28:41 12° 268° (W) 01:30:27 434.975-435.025
UKube-1 08 Dec 01:29:07 01:31:38 15° 266° (W) 01:34:10 .
AUBIESAT-1 08 Dec 01:55:04 01:59:07 58° 70° (ENE) 02:03:28 437.475
AO-85 08 Dec 01:59:32 02:04:29 62° 301° (WNW) 02:09:04 145.980
SWISSCUBE 08 Dec 02:06:23 02:11:07 72° 75° (ENE) 02:15:53 437.505
M-CUBED/EXP-1 PRIME 08 Dec 02:09:06 02:13:10 77° 253° (WSW) 02:17:36 437.505
BEESAT 08 Dec 02:10:11 02:14:56 70° 75° (ENE) 02:19:41 436.000
PHONESAT 2.4 08 Dec 02:37:11 02:39:39 33° 6° (N) 02:42:05 2401.200-2431.200
ITUPSAT 1 08 Dec 02:39:22 02:44:03 58° 259° (W) 02:48:47 437.325
Oscar 19 08 Dec 02:41:15 02:45:57 35° 290° (WNW) 02:50:37 437.125/150
O/OREOS (USA 219) 08 Dec 02:48:55 02:52:36 26° 258° (WSW) 02:56:17 437.305
Gurwin Techsat 1B 08 Dec 02:53:50 02:59:01 54° 287° (WNW) 03:04:10 435.225
GONETS M04 08 Dec 02:55:42 03:01:17 18° 294° (WNW) 03:06:55
MOZHAYETS 4 08 Dec 02:57:50 03:02:15 49° 74° (ENE) 03:06:41
Cosmos 2499 08 Dec 03:01:24 03:05:56 15° 297° (WNW) 03:10:33 435.465 / 435.565
KKS-1 08 Dec 03:13:07 03:16:59 30° 70° (ENE) 03:20:52 437.445
ITAMSAT 1 08 Dec 03:13:54 03:18:56 50° 100° (E) 03:23:56 435.822/435.867
STARS 08 Dec 03:14:53 03:17:13 14° 65° (ENE) 03:19:31 437.465
BEESAT 3 08 Dec 03:32:26 03:34:26 14° 109° (ESE) 03:36:26 437.485
AUBIESAT-1 08 Dec 03:32:59 03:33:55 11° 266° (W) 03:34:53 437.475
AO-7 08 Dec 03:40:23 03:48:30 51° 102° (ESE) 03:56:34 29.400- 29.500
BEESAT 2 08 Dec 04:06:02 04:08:14 15° 109° (ESE) 04:10:26 435.950
PHONESAT 2.4 08 Dec 04:12:21 04:14:59 77° 200° (SSW) 04:17:36 2401.200-2431.200
YUBILEINY 08 Dec 04:36:26 04:41:10 15° 64° (ENE) 04:45:51 435.215
MOZHAYETS 4 08 Dec 04:37:21 04:39:39 14° 268° (W) 04:41:56
BRITE-PL 08 Dec 04:41:45 04:46:18 25° 95° (E) 04:50:54 437.365/2234.400
CUBESAT XI-V 08 Dec 04:43:11 04:47:46 87° 255° (WSW) 04:52:24 437.345
STARS 08 Dec 04:48:49 04:53:06 48° 260° (W) 04:57:25 437.465
KKS-1 08 Dec 04:50:03 04:53:31 22° 265° (W) 04:57:00 437.445
SO-50 08 Dec 04:50:14 04:54:45 68° 59° (ENE) 04:59:10 436.795
ITAMSAT 1 08 Dec 04:54:33 04:57:57 18° 296° (WNW) 05:01:23 435.822/435.867
Cosmos 2491 08 Dec 05:07:35 05:08:57 10° 75° (ENE) 05:10:20 435.465 / 435.565
BEESAT 3 08 Dec 05:08:00 05:11:40 40° 304° (NW) 05:15:24 437.485
NOAA 15 08 Dec 05:21:37 05:23:39 12° 91° (E) 05:25:41 137.62
Cubesat XI-IV 08 Dec 05:32:07 05:34:53 14° 92° (E) 05:37:39 437.490
AO-7 08 Dec 05:33:40 05:40:54 34° 299° (WNW) 05:48:09 29.400- 29.500
LilacSat-2 08 Dec 05:38:33 05:40:29 13° 93° (E) 05:42:24 437.200
BEESAT 2 08 Dec 05:41:57 05:45:39 38° 304° (NW) 05:49:24 435.950
GOMX 1 08 Dec 05:43:59 05:49:12 42° 97° (E) 05:54:20 467.674
DOVE 4 08 Dec 05:44:33 05:47:52 17° 91° (E) 05:51:05 437.250
PHONESAT 2.4 08 Dec 05:49:06 05:49:50 11° 216° (SW) 05:50:35 2401.200-2431.200
HORYU 2 08 Dec 05:56:32 06:00:59 84° 282° (WNW) 06:05:22 437.375
STRAND 1 08 Dec 06:00:35 06:04:30 23° 67° (ENE) 06:08:26 437.568
Cosmos 2504 08 Dec 06:13:17 06:20:57 33° 72° (ENE) 06:28:10 435.465 / 435.565
BRITE-PL 08 Dec 06:19:38 06:24:46 40° 288° (WNW) 06:30:02 437.365/2234.400
YUBILEINY 08 Dec 06:30:24 06:39:17 84° 83° (E) 06:48:08 435.215
SO-50 08 Dec 06:34:21 06:34:33 10° 254° (WSW) 06:34:44 436.795
CUTE-I 08 Dec 06:43:16 06:48:36 76° 102° (ESE) 06:53:54 437.470
CINEMA 3 08 Dec 06:46:42 06:49:31 16° 91° (E) 06:52:14 145.822/145.860
